Tracking 20093 objects as of 14-Dec-2019
HD Live streaming from Space Station
objects crossing your sky now

FENGYUN 1C DEB

Track FENGYUN 1C DEB now!
10-day predictions


NORAD ID: 31294
Int'l Code: 1999-025BPC
Perigee: 784.8 km
Apogee: 937.1 km
Inclination: 98.7 °
Period: 102.0 minutes
Semi major axis: 7231 km
RCS: 0.012 m2 (small)
Launch date: May 10, 1999
Source: People's Republic of China (PRC)
Launch site: Taiyaun Space Center, China (TSC)

Note: This is SATELLITE DEBRIS
aabbcc
Your satellite tracking list
Your tracking list is empty




NASA's NSSDC Master Catalog

Two Line Element Set (TLE):
1 31294U 99025BPC 19347.41997147 +.00000099 +00000-0 +73587-4 0  9992
2 31294 098.7114 038.4431 0105267 120.9358 240.2212 14.11633016659125
Source of the keplerian elements: AFSPC